When you browse on this site, cookies collect data to enhance your experience and personalize the content and advertising you see.
Visit our Privacy Policy to learn more. By continuing to use the site, you agree to this use of cookies and data.
  • In Hungary
  • List of Countries
  • For 7 days
  • Water Temperature
  • Weather Map
  • News
  • Weather Widgets
  • user-avatar
    Login

    Hourly Weather Yantarnoe

    Today, 2 June, Tuesday

    Time Temperature Precipitation Wind Pressure Humidity
    00:00 +15°C° 0 mm 0 mps 748 mmHg 79%
    01:00 +14°C° 0 mm 0 mps 748 mmHg 81%
    02:00 +14°C° 0 mm 0 mps 748 mmHg 82%
    03:00 +14°C° 0 mm 0 mps 748 mmHg 82%
    04:00 +14°C° 0 mm 0 mps 748 mmHg 81%
    05:00 +15°C° 0 mm 0 mps 748 mmHg 78%
    06:00 +18°C° 0 mm 1 mps 748 mmHg 74%
    07:00 +19°C° 0 mm 1 mps 748 mmHg 70%
    08:00 +21°C° 0 mm 1 mps 749 mmHg 66%
    09:00 +21°C° 0 mm 2 mps 749 mmHg 62%
    10:00 +22°C° 0 mm 3 mps 749 mmHg 56%
    11:00 +21°C° 0.2 mm 3 mps 749 mmHg 60%
    12:00 +21°C° 0.2 mm 3 mps 749 mmHg 64%
    13:00 +20°C° 0.2 mm 4 mps 749 mmHg 68%
    14:00 +20°C° 0.1 mm 4 mps 749 mmHg 66%
    15:00 +21°C° 0.1 mm 4 mps 749 mmHg 64%
    16:00 +20°C° 0 mm 6 mps 749 mmHg 70%
    17:00 +19°C° 0 mm 6 mps 749 mmHg 73%
    18:00 +19°C° 0 mm 5 mps 749 mmHg 75%
    19:00 +17°C° 0 mm 5 mps 749 mmHg 77%
    20:00 +16°C° 0 mm 5 mps 749 mmHg 79%
    21:00 +15°C° 0 mm 4 mps 749 mmHg 81%
    22:00 +15°C° 0 mm 4 mps 749 mmHg 82%
    23:00 +14°C° 0 mm 4 mps 749 mmHg 82%

    Tomorrow, 3 June, Wednesday

    Time Temperature Precipitation Wind Pressure Humidity
    00:00 +14°C° 0 mm 4 mps 748 mmHg 83%
    01:00 +13°C° 0 mm 4 mps 748 mmHg 83%
    02:00 +13°C° 0 mm 4 mps 748 mmHg 81%
    03:00 +13°C° 0 mm 4 mps 748 mmHg 80%
    04:00 +13°C° 0 mm 4 mps 748 mmHg 78%
    05:00 +14°C° 0 mm 5 mps 748 mmHg 77%
    06:00 +14°C° 0 mm 5 mps 748 mmHg 76%
    07:00 +15°C° 0 mm 5 mps 748 mmHg 75%
    08:00 +17°C° 0 mm 5 mps 748 mmHg 72%
    09:00 +20°C° 0 mm 5 mps 748 mmHg 69%
    10:00 +22°C° 0 mm 5 mps 749 mmHg 66%
    11:00 +23°C° 0 mm 4 mps 748 mmHg 61%
    12:00 +25°C° 0 mm 4 mps 748 mmHg 55%
    13:00 +27°C° 0 mm 4 mps 748 mmHg 50%
    14:00 +27°C° 0 mm 4 mps 748 mmHg 50%
    15:00 +27°C° 0 mm 5 mps 748 mmHg 49%
    16:00 +27°C° 0 mm 5 mps 748 mmHg 49%
    17:00 +26°C° 0.1 mm 5 mps 748 mmHg 56%
    18:00 +23°C° 0.1 mm 5 mps 748 mmHg 63%
    19:00 +22°C° 0.1 mm 4 mps 747 mmHg 70%
    20:00 +21°C° 0.3 mm 5 mps 747 mmHg 74%
    21:00 +20°C° 0.3 mm 6 mps 747 mmHg 78%
    22:00 +18°C° 0.3 mm 7 mps 747 mmHg 81%
    23:00 +17°C° 0 mm 6 mps 747 mmHg 81%

    Day after tomorrow, 4 June, Thursday

    Time Temperature Precipitation Wind Pressure Humidity
    00:00 +17°C° 0 mm 6 mps 746 mmHg 81%
    01:00 +17°C° 0 mm 6 mps 746 mmHg 80%
    02:00 +17°C° 0.1 mm 6 mps 746 mmHg 79%
    03:00 +16°C° 0.1 mm 7 mps 746 mmHg 78%
    04:00 +16°C° 0.1 mm 7 mps 746 mmHg 77%
    05:00 +16°C° 0 mm 7 mps 746 mmHg 75%
    06:00 +17°C° 0 mm 7 mps 746 mmHg 73%
    07:00 +17°C° 0 mm 7 mps 746 mmHg 72%
    08:00 +18°C° 0 mm 7 mps 747 mmHg 69%
    09:00 +20°C° 0 mm 7 mps 747 mmHg 66%
    10:00 +21°C° 0 mm 7 mps 747 mmHg 64%
    11:00 +21°C° 0.1 mm 7 mps 747 mmHg 62%
    12:00 +22°C° 0.1 mm 7 mps 747 mmHg 60%
    13:00 +23°C° 0.1 mm 8 mps 747 mmHg 58%
    14:00 +23°C° 0 mm 7 mps 747 mmHg 59%
    15:00 +23°C° 0 mm 7 mps 747 mmHg 60%
    16:00 +23°C° 0 mm 7 mps 748 mmHg 60%
    17:00 +21°C° 0.2 mm 7 mps 748 mmHg 65%
    18:00 +20°C° 0.2 mm 7 mps 747 mmHg 70%
    19:00 +18°C° 0.2 mm 7 mps 747 mmHg 74%
    20:00 +18°C° 0 mm 7 mps 748 mmHg 70%
    21:00 +18°C° 0 mm 7 mps 748 mmHg 65%
    22:00 +18°C° 0 mm 8 mps 748 mmHg 61%
    23:00 +17°C° 0 mm 7 mps 748 mmHg 60%

    5 June, Friday

    Time Temperature Precipitation Wind Pressure Humidity
    00:00 +17°C° 0 mm 7 mps 748 mmHg 60%
    01:00 +17°C° 0 mm 6 mps 748 mmHg 59%
    02:00 +16°C° 0.1 mm 6 mps 748 mmHg 60%
    03:00 +16°C° 0.1 mm 6 mps 748 mmHg 62%
    04:00 +16°C° 0.1 mm 5 mps 749 mmHg 63%
    05:00 +15°C° 0 mm 6 mps 749 mmHg 63%
    06:00 +15°C° 0 mm 6 mps 749 mmHg 64%
    07:00 +15°C° 0 mm 7 mps 749 mmHg 64%
    08:00 +15°C° 0.1 mm 7 mps 749 mmHg 66%
    09:00 +15°C° 0.1 mm 6 mps 750 mmHg 67%
    10:00 +15°C° 0.1 mm 6 mps 750 mmHg 68%
    11:00 +16°C° 0 mm 6 mps 750 mmHg 68%
    12:00 +16°C° 0 mm 6 mps 750 mmHg 67%
    13:00 +17°C° 0 mm 5 mps 750 mmHg 67%
    14:00 +17°C° 0.1 mm 5 mps 750 mmHg 68%
    15:00 +17°C° 0.1 mm 5 mps 750 mmHg 70%
    16:00 +16°C° 0.1 mm 5 mps 750 mmHg 72%
    17:00 +16°C° 0.1 mm 5 mps 750 mmHg 74%
    18:00 +15°C° 0.1 mm 5 mps 750 mmHg 76%
    19:00 +15°C° 0.1 mm 5 mps 750 mmHg 78%
    20:00 +15°C° 0 mm 5 mps 750 mmHg 77%
    21:00 +15°C° 0 mm 5 mps 750 mmHg 76%
    22:00 +15°C° 0 mm 5 mps 750 mmHg 75%
    23:00 +14°C° 0 mm 5 mps 750 mmHg 74%

    6 June, Saturday

    Time Temperature Precipitation Wind Pressure Humidity
    00:00 +14°C° 0 mm 5 mps 750 mmHg 73%
    01:00 +14°C° 0 mm 4 mps 750 mmHg 71%
    02:00 +14°C° 0.1 mm 4 mps 750 mmHg 72%
    03:00 +13°C° 0.1 mm 4 mps 750 mmHg 73%
    04:00 +13°C° 0.1 mm 4 mps 750 mmHg 74%
    05:00 +13°C° 0 mm 5 mps 750 mmHg 74%
    06:00 +13°C° 0 mm 5 mps 750 mmHg 73%
    07:00 +14°C° 0 mm 6 mps 750 mmHg 73%
    08:00 +14°C° 0 mm 6 mps 751 mmHg 70%
    09:00 +15°C° 0 mm 5 mps 751 mmHg 68%
    10:00 +16°C° 0 mm 5 mps 751 mmHg 65%
    11:00 +16°C° 0 mm 5 mps 752 mmHg 65%
    12:00 +18°C° 0 mm 4 mps 752 mmHg 65%
    13:00 +18°C° 0 mm 3 mps 752 mmHg 64%
    14:00 +19°C° 0 mm 4 mps 752 mmHg 62%
    15:00 +19°C° 0 mm 4 mps 752 mmHg 60%
    16:00 +19°C° 0 mm 4 mps 752 mmHg 58%
    17:00 +19°C° 0 mm 4 mps 752 mmHg 60%
    18:00 +18°C° 0 mm 4 mps 752 mmHg 62%
    19:00 +17°C° 0 mm 4 mps 752 mmHg 64%
    20:00 +16°C° 0 mm 3 mps 752 mmHg 63%
    21:00 +14°C° 0 mm 3 mps 753 mmHg 62%
    22:00 +14°C° 0 mm 3 mps 753 mmHg 61%
    23:00 +13°C° 0 mm 3 mps 753 mmHg 60%

    7 June, Sunday

    Time Temperature Precipitation Wind Pressure Humidity
    00:00 +13°C° 0 mm 3 mps 753 mmHg 58%
    01:00 +13°C° 0 mm 3 mps 753 mmHg 57%
    02:00 +13°C° 0 mm 3 mps 754 mmHg 59%
    03:00 +13°C° 0 mm 3 mps 754 mmHg 61%
    04:00 +12°C° 0 mm 3 mps 754 mmHg 63%
    05:00 +13°C° 0 mm 3 mps 754 mmHg 63%
    06:00 +14°C° 0 mm 4 mps 754 mmHg 63%
    07:00 +14°C° 0 mm 4 mps 754 mmHg 63%
    08:00 +17°C° 0 mm 4 mps 755 mmHg 59%
    09:00 +19°C° 0 mm 4 mps 755 mmHg 54%
    10:00 +21°C° 0 mm 4 mps 755 mmHg 49%
    11:00 +22°C° 0 mm 4 mps 755 mmHg 46%
    12:00 +23°C° 0 mm 4 mps 755 mmHg 42%
    13:00 +25°C° 0 mm 4 mps 755 mmHg 39%
    14:00 +25°C° 0 mm 4 mps 755 mmHg 39%
    15:00 +25°C° 0 mm 4 mps 755 mmHg 40%
    16:00 +25°C° 0 mm 4 mps 755 mmHg 41%
    17:00 +23°C° 0 mm 4 mps 755 mmHg 46%
    18:00 +24°C° 0 mm 3 mps 755 mmHg 51%
    19:00 +22°C° 0 mm 3 mps 755 mmHg 56%
    20:00 +20°C° 0 mm 3 mps 755 mmHg 59%
    21:00 +19°C° 0 mm 3 mps 755 mmHg 61%
    22:00 +17°C° 0 mm 3 mps 755 mmHg 63%
    23:00 +16°C° 0 mm 3 mps 755 mmHg 64%
    Show more